Ludington, MI

3:24 PM EST on December 05, 2019 (GMT -0500)
Mason County

Weather History for KLDM - November, 2019

Change the Weather History Date:

Tuesday, November 12, 2019

  Actual Average Record
Temperature  
Mean Temperature 20 °F -  
Max Temperature 22 °F 43 °F 65 °F (1964)
Min Temperature 19 °F 30 °F 17 °F (2004)
Degree Days  
Heating Degree Days 45    
Moisture  
Dew Point 10 °F    
Average Humidity 65    
Maximum Humidity 87    
Minimum Humidity 54    
Precipitation  
Precipitation 0.00 in - - ()
Sea Level Pressure  
Sea Level Pressure 30.33 in    
Wind  
Wind Speed 11 mph ()    
Max Wind Speed 21 mph    
Max Gust Speed 29 mph    
Visibility 7.3 miles    
Events Snow    
Averages and records for this station are not official NWS values.
T = Trace of Precipitation, MM = Missing Value Source: Averaged Metar Reports

Daily Weather History Graph

Daily Weather History Graph

Search for Another Location

Airport or City:

Astronomy

Nov. 12, 2019 Rise Set
Actual Time 7:36 AM EST 5:22 PM EST
Civil Twilight 7:05 AM EST 5:53 PM EST
Nautical Twilight 6:30 AM EST 6:28 PM EST
Astronomical Twilight 5:56 AM EST 7:02 PM EST
Moon 5:50 PM EST (11/12) 7:25 AM EST (11/12)
Length of Visible Light 10h 48m
Length of Day
9h 46m
Full, 100% of the Moon is Illuminated
Nov 12
Full
Nov 19
Last Quarter
Nov 26
New
Dec 4
First Quarter
Dec 12
Full

Hourly Weather History & Observations

Time (EST) Temp. Windchill Dew Point Humidity Pressure Visibility Wind Dir Wind Speed Gust Speed Precip Events Conditions
12:15 AM 20.8 °F 6.8 °F 17.6 °F 87% 30.26 in 1.0 mi North 16.1 mph 28.8 mph N/A Snow Snow
12:35 AM 20.8 °F 6.8 °F 16.0 °F 81% 30.26 in 1.5 mi North 16.1 mph 25.3 mph N/A Snow Light Snow
12:55 AM 20.7 °F 8.8 °F 15.8 °F 81% 30.27 in 2.5 mi NNW 11.5 mph 25.3 mph N/A Snow Light Snow
1:15 AM 20.5 °F 6.9 °F 13.8 °F 75% 30.27 in 3.0 mi NNW 15.0 mph 21.9 mph N/A Snow Light Snow
1:16 AM 20.3 °F 6.6 °F 13.6 °F 75% 30.27 in 3.0 mi NNW 15.0 mph 21.9 mph N/A Snow Light Snow
1:35 AM 20.3 °F 5.2 °F 13.1 °F 74% 30.27 in 4.0 mi NNW 18.4 mph 25.3 mph N/A Snow Light Snow
1:55 AM 20.3 °F 5.2 °F 13.5 °F 75% 30.27 in 3.0 mi NNW 18.4 mph 27.6 mph N/A Snow Light Snow
1:56 AM 20.3 °F 5.7 °F 13.5 °F 75% 30.27 in 3.0 mi NNW 17.3 mph 27.6 mph N/A Snow Light Snow
2:15 AM 20.3 °F 8.3 °F 12.6 °F 72% 30.27 in 5.0 mi NNW 11.5 mph 25.3 mph N/A Snow Light Snow
2:35 AM 20.3 °F 9.0 °F 11.3 °F 68% 30.27 in 5.0 mi NNW 10.4 mph 25.3 mph N/A Snow Light Snow
2:36 AM 20.3 °F 8.3 °F 11.3 °F 68% 30.27 in 5.0 mi NNW 11.5 mph 25.3 mph N/A Snow Light Snow
2:55 AM 20.7 °F 7.1 °F 10.4 °F 65% 30.27 in 7.0 mi NW 15.0 mph 26.5 mph N/A   Overcast
3:15 AM 20.5 °F 6.9 °F 10.9 °F 67% 30.27 in 5.0 mi NNW 15.0 mph 24.2 mph N/A Snow Light Snow
3:16 AM 20.3 °F 6.1 °F 10.9 °F 67% 30.27 in 5.0 mi NW 16.1 mph 24.2 mph N/A Snow Light Snow
3:35 AM 20.3 °F 6.6 °F 11.7 °F 69% 30.27 in 7.0 mi NNW 15.0 mph 21.9 mph N/A Snow Light Snow
3:56 AM 20.7 °F 6.6 °F 10.4 °F 65% 30.27 in 10.0 mi NNW 16.1 mph 20.7 mph N/A   Overcast
4:15 AM 20.5 °F 6.4 °F 10.2 °F 65% 30.27 in 5.0 mi NNW 16.1 mph 24.2 mph N/A Snow Light Snow
4:35 AM 20.1 °F 6.4 °F 11.5 °F 69% 30.28 in 3.0 mi NNW 15.0 mph 26.5 mph N/A Snow Light Snow
4:36 AM 20.1 °F 7.5 °F 11.5 °F 69% 30.28 in 3.0 mi NNW 12.7 mph 26.5 mph N/A Snow Light Snow
4:55 AM 20.1 °F 5.4 °F 10.4 °F 66% 30.28 in 4.0 mi NNW 17.3 mph 27.6 mph N/A Snow Light Snow
5:15 AM 20.1 °F 8.1 °F 10.0 °F 65% 30.29 in 7.0 mi NW 11.5 mph 21.9 mph N/A Snow Light Snow
5:35 AM 20.1 °F 4.6 °F 9.5 °F 63% 30.29 in 7.0 mi NNW 19.6 mph 25.3 mph N/A   Overcast
5:36 AM 20.1 °F 4.2 °F 9.5 °F 63% 30.29 in 7.0 mi NNW 20.7 mph 25.3 mph N/A   Overcast
5:55 AM 19.9 °F 7.3 °F 9.1 °F 63% 30.29 in 7.0 mi NNW 12.7 mph 21.9 mph N/A   Overcast
6:15 AM 19.8 °F 5.9 °F 9.1 °F 63% 30.30 in 7.0 mi NNW 15.0 mph 26.5 mph N/A   Overcast
6:35 AM 19.4 °F 7.2 °F 11.3 °F 71% 30.31 in 4.0 mi NW 11.5 mph 20.7 mph N/A Snow Light Snow
6:55 AM 19.4 °F 8.6 °F 9.5 °F 65% 30.31 in 7.0 mi NNW 9.2 mph - N/A Snow Light Snow
6:56 AM 19.4 °F 9.5 °F 9.5 °F 65% 30.31 in 10.0 mi NNW 8.1 mph - N/A Snow Light Snow
7:15 AM 19.9 °F 6.7 °F 8.2 °F 61% 30.31 in 10.0 mi NW 13.8 mph 21.9 mph N/A Snow Light Snow
7:35 AM 19.6 °F 6.8 °F 10.8 °F 69% 30.31 in 7.0 mi NW 12.7 mph 20.7 mph N/A Snow Light Snow
7:55 AM 19.4 °F 9.5 °F 10.9 °F 70% 30.32 in 10.0 mi NW 8.1 mph 18.4 mph N/A   Overcast
8:15 AM 19.4 °F 5.5 °F 9.5 °F 65% 30.32 in 7.0 mi NNW 15.0 mph 24.2 mph N/A   Overcast
8:35 AM 19.4 °F 9.5 °F 9.1 °F 64% 30.33 in 7.0 mi NNW 8.1 mph 16.1 mph N/A   Overcast
8:55 AM 19.4 °F 7.9 °F 11.7 °F 72% 30.34 in 3.0 mi NW 10.4 mph 21.9 mph N/A Snow Light Snow
9:15 AM 19.8 °F 7.7 °F 10.0 °F 66% 30.35 in 10.0 mi NNW 11.5 mph 20.7 mph N/A   Overcast
9:16 AM 19.8 °F 5.9 °F 10.2 °F 67% 30.35 in 7.0 mi NW 15.0 mph 23.0 mph N/A   Overcast
9:35 AM 20.1 °F 7.5 °F 12.0 °F 71% 30.35 in 4.0 mi NNW 12.7 mph 18.4 mph N/A Snow Light Snow
9:55 AM 20.5 °F 8.6 °F 9.1 °F 62% 30.35 in 7.0 mi NNW 11.5 mph 19.6 mph N/A   Overcast
10:15 AM 20.1 °F 8.1 °F 9.9 °F 64% 30.36 in 7.0 mi NW 11.5 mph 21.9 mph N/A Snow Light Snow
10:16 AM 20.1 °F 6.9 °F 9.9 °F 64% 30.36 in 7.0 mi NW 13.8 mph 21.9 mph N/A Snow Light Snow
10:35 AM 20.3 °F 7.7 °F 7.2 °F 57% 30.36 in 10.0 mi NNW 12.7 mph 17.3 mph N/A   Overcast
10:55 AM 20.3 °F 7.2 °F 8.1 °F 59% 30.37 in 10.0 mi NW 13.8 mph 19.6 mph N/A   Overcast
11:15 AM 20.3 °F 9.0 °F 10.6 °F 66% 30.37 in 5.0 mi NNW 10.4 mph 21.9 mph N/A Snow Light Snow
11:16 AM 20.3 °F 8.3 °F 10.8 °F 67% 30.37 in 5.0 mi NNW 11.5 mph 21.9 mph N/A Snow Light Snow
11:35 AM 19.8 °F 7.7 °F 12.7 °F 74% 30.37 in 1.8 mi North 11.5 mph 20.7 mph N/A Snow Light Snow
11:36 AM 19.6 °F 6.8 °F 12.9 °F 75% 30.37 in 1.5 mi North 12.7 mph 20.7 mph N/A Snow Light Snow
12:15 PM 20.7 °F 10.2 °F 11.1 °F 67% 30.37 in 7.0 mi NNW 9.2 mph 16.1 mph N/A Snow Light Snow
12:35 PM 20.1 °F 6.9 °F 9.7 °F 64% 30.37 in 7.0 mi NW 13.8 mph 19.6 mph N/A   Overcast
12:55 PM 20.1 °F 9.5 °F 11.3 °F 69% 30.37 in 5.0 mi NNW 9.2 mph 19.6 mph N/A Snow Light Snow
1:15 PM 19.8 °F 8.3 °F 12.7 °F 74% 30.37 in 1.5 mi NNW 10.4 mph 17.3 mph N/A Snow Light Snow
1:16 PM 19.6 °F 9.7 °F 13.3 °F 77% 30.37 in 1.5 mi NNW 8.1 mph 17.3 mph N/A Snow Light Snow
1:35 PM 19.9 °F 11.1 °F 11.5 °F 70% 30.36 in 3.0 mi NNW 6.9 mph - N/A Snow Light Snow
1:55 PM 21.0 °F 11.4 °F 9.5 °F 61% 30.36 in 10.0 mi NW 8.1 mph 16.1 mph N/A   Overcast
2:15 PM 21.0 °F 9.3 °F 8.4 °F 58% 30.36 in 10.0 mi NNW 11.5 mph 17.3 mph N/A   Overcast
2:16 PM 21.2 °F 8.9 °F 8.6 °F 58% 30.36 in 10.0 mi NNW 12.7 mph 17.3 mph N/A   Overcast
2:35 PM 21.4 °F 10.4 °F 8.2 °F 57% 30.36 in 10.0 mi NNW 10.4 mph 17.3 mph N/A   Overcast
2:36 PM 21.4 °F 11.1 °F 8.4 °F 57% 30.36 in 10.0 mi NW 9.2 mph 17.3 mph N/A   Overcast
2:55 PM 20.7 °F 11.0 °F 7.5 °F 57% 30.36 in 10.0 mi West 8.1 mph - N/A Snow Light Snow
3:15 PM 20.5 °F 10.8 °F 6.1 °F 54% 30.36 in 10.0 mi NW 8.1 mph - N/A   Overcast
3:35 PM 19.9 °F 12.1 °F 9.5 °F 64% 30.36 in 5.0 mi NNW 5.8 mph - N/A Snow Light Snow
3:55 PM 20.3 °F 9.8 °F 7.3 °F 57% 30.36 in 10.0 mi NNW 9.2 mph - N/A   Overcast
3:56 PM 20.3 °F 9.8 °F 7.2 °F 57% 30.36 in 10.0 mi NNW 9.2 mph - N/A   Overcast
4:15 PM 19.8 °F 11.9 °F 10.0 °F 66% 30.36 in 5.0 mi NW 5.8 mph - N/A Snow Light Snow
4:16 PM 19.9 °F 11.1 °F 10.0 °F 65% 30.36 in 5.0 mi NW 6.9 mph - N/A Snow Light Snow
4:35 PM 20.3 °F 13.8 °F 9.3 °F 63% 30.36 in 10.0 mi NW 4.6 mph - N/A Snow Light Snow
4:55 PM 20.3 °F 15.4 °F 8.6 °F 61% 30.36 in 10.0 mi NW 3.5 mph - N/A   Overcast
5:15 PM 20.3 °F - 9.9 °F 64% 30.36 in 10.0 mi Calm Calm - N/A Snow Light Snow
5:35 PM 20.3 °F 13.8 °F 11.3 °F 68% 30.36 in 10.0 mi WNW 4.6 mph - N/A Snow Light Snow
6:15 PM 20.7 °F 15.8 °F 9.1 °F 61% 30.36 in 10.0 mi NW 3.5 mph - N/A   Overcast
6:16 PM 20.7 °F 15.8 °F 9.1 °F 61% 30.36 in 10.0 mi WNW 3.5 mph - N/A   Overcast
6:35 PM 20.7 °F 15.8 °F 8.8 °F 60% 30.36 in 10.0 mi WNW 3.5 mph - N/A   Overcast
6:55 PM 20.7 °F - 8.4 °F 59% 30.36 in 10.0 mi Calm Calm - N/A   Overcast
6:56 PM 20.7 °F 15.8 °F 8.6 °F 60% 30.36 in 10.0 mi WSW 3.5 mph - N/A   Overcast
7:15 PM 20.8 °F 14.4 °F 8.1 °F 58% 30.36 in 10.0 mi West 4.6 mph - N/A   Overcast
7:35 PM 21.0 °F 16.2 °F 7.3 °F 56% 30.36 in 10.0 mi West 3.5 mph - N/A   Overcast
7:36 PM 21.0 °F 16.2 °F 7.2 °F 55% 30.36 in 10.0 mi West 3.5 mph - N/A   Overcast
7:55 PM 20.8 °F 16.0 °F 8.2 °F 58% 30.35 in 10.0 mi WSW 3.5 mph - N/A   Overcast
8:15 PM 21.0 °F - 6.8 °F 54% 30.35 in 10.0 mi Calm Calm - N/A   Overcast
8:16 PM 21.0 °F - 6.8 °F 54% 30.35 in 10.0 mi Calm Calm - N/A   Overcast
8:35 PM 21.2 °F - 6.8 °F 54% 30.34 in 10.0 mi Calm Calm - N/A   Overcast
8:55 PM 21.0 °F 16.2 °F 8.2 °F 58% 30.34 in 10.0 mi SW 3.5 mph - N/A   Overcast
9:15 PM 21.6 °F - 8.6 °F 57% 30.34 in 10.0 mi Calm Calm - N/A   Overcast
9:16 PM 21.6 °F - 8.6 °F 57% 30.34 in 10.0 mi Calm Calm - N/A   Overcast
9:35 PM 21.6 °F - 7.7 °F 55% 30.33 in 10.0 mi Calm Calm - N/A   Overcast
9:36 PM 21.7 °F - 7.9 °F 55% 30.33 in 10.0 mi Calm Calm - N/A   Overcast
9:55 PM 19.9 °F - 10.6 °F 67% 30.33 in 10.0 mi Calm Calm - N/A   Overcast
9:56 PM 20.3 °F - 10.4 °F 66% 30.33 in 10.0 mi Calm Calm - N/A   Overcast
10:15 PM 21.9 °F 15.7 °F 10.2 °F 61% 30.32 in 10.0 mi South 4.6 mph - N/A   Overcast
10:16 PM 21.9 °F 14.5 °F 10.0 °F 60% 30.33 in 10.0 mi SSW 5.8 mph - N/A   Overcast
10:35 PM 20.3 °F 15.4 °F 11.3 °F 68% 30.32 in 10.0 mi SSE 3.5 mph - N/A   Overcast
10:55 PM 20.1 °F 11.3 °F 11.5 °F 69% 30.31 in 10.0 mi SE 6.9 mph - N/A   Overcast
11:15 PM 19.4 °F 14.3 °F 11.8 °F 72% 30.31 in 10.0 mi ESE 3.5 mph - N/A   Overcast
11:35 PM 19.4 °F 12.8 °F 11.3 °F 71% 30.31 in 10.0 mi SSE 4.6 mph - N/A   Overcast
11:55 PM 19.2 °F 14.1 °F 12.2 °F 74% 30.31 in 10.0 mi SE 3.5 mph - N/A   Overcast